Weather History for Arlington, TX

Change the Weather History Date:

Sunday, April 6, 2014

  Actual Average (KRBD) Record (KRBD)
Temperature  
Mean Temperature 50 °F -  
Max Temperature 53 °F 71 °F 82 °F (2003)
Min Temperature 46 °F 51 °F 39 °F (2009)
Degree Days  
Heating Degree Days 16    
Moisture  
Dew Point 46 °F    
Average Humidity 87    
Maximum Humidity 94    
Minimum Humidity 63    
Precipitation  
Precipitation 0.49 in - - ()
Sea Level Pressure  
Sea Level Pressure 29.84 in    
Wind  
Wind Speed 10 mph (NNE)    
Max Wind Speed 16 mph    
Max Gust Speed 21 mph    
Visibility 7 miles    
Events Rain , Thunderstorm    
Averages and records for this station are not official NWS values.
T = Trace of Precipitation, MM = Missing Value Source: NWS Daily Summary

Daily Weather History Graph

Daily Weather History Graph

Search for Another Location

Airport:

Trip Planner

Search our weather history database for the weather conditions in past years. The results will help you decide how hot, cold, wet, or windy it might be!

Date:

Astronomy

Apr. 06, 2014 Rise Set
Actual Time 7:09 AM CDT 7:51 PM CDT
Civil Twilight 6:45 AM CDT 8:16 PM CDT
Nautical Twilight 6:15 AM CDT 8:46 PM CDT
Astronomical Twilight 5:45 AM CDT 9:16 PM CDT
Moon 12:22 PM CDT (4/6) 1:38 AM CDT (4/6)
Length of Visible Light 13h 31m
Length of Day
12h 42m
Waxing Crescent, 44% of the Moon is Illuminated
Apr 6
Waxing Crescent
Apr 7
First Quarter
Apr 15
Full
Apr 22
Last Quarter
Apr 29
New

Hourly Weather History & Observations

Time (CDT) Temp. Windchill Dew Point Humidity Pressure Visibility Wind Dir Wind Speed Gust Speed Precip Events Conditions
12:53 AM 51.1 °F - 39.9 °F 66% 29.93 in 10.0 mi ENE 8.1 mph - N/A   Mostly Cloudy
1:53 AM 52.0 °F - 39.9 °F 63% 29.95 in 10.0 mi ENE 8.1 mph - N/A   Overcast
2:53 AM 51.1 °F - 41.0 °F 68% 29.92 in 10.0 mi ENE 11.5 mph - N/A   Overcast
3:53 AM 51.1 °F - 41.0 °F 68% 29.91 in 10.0 mi ENE 11.5 mph - N/A   Overcast
4:06 AM 51.8 °F - 42.8 °F 71% 29.94 in 10.0 mi NE 6.9 mph - 0.00 in Rain , Thunderstorm Light Rain
4:34 AM 50.0 °F - 42.8 °F 76% 29.93 in 10.0 mi North 5.8 mph - 0.00 in Rain Light Rain
4:53 AM 50.0 °F - 44.1 °F 80% 29.91 in 10.0 mi NE 9.2 mph - 0.01 in Rain Light Rain
5:53 AM 48.9 °F - 44.1 °F 83% 29.88 in 10.0 mi NNE 9.2 mph - 0.00 in   Overcast
6:53 AM 48.9 °F - 44.1 °F 83% 29.87 in 10.0 mi NE 11.5 mph - N/A   Overcast
7:28 AM 48.2 °F - 44.6 °F 87% 29.89 in 2.5 mi North 9.2 mph - 0.12 in Rain Heavy Rain
7:31 AM 48.2 °F - 44.6 °F 87% 29.89 in 3.0 mi North 9.2 mph - 0.13 in Rain Heavy Rain
7:38 AM 48.2 °F - 44.6 °F 87% 29.90 in 6.0 mi North 10.4 mph - 0.13 in Rain Light Rain
7:46 AM 48.2 °F - 44.6 °F 87% 29.90 in 10.0 mi NNE 8.1 mph - 0.14 in Rain Light Rain
7:53 AM 48.0 °F - 45.0 °F 89% 29.90 in 10.0 mi NNE 8.1 mph - 0.14 in Rain Light Rain
8:37 AM 46.4 °F 40.4 °F 44.6 °F 93% 29.88 in 6.0 mi NE 13.8 mph - 0.04 in Rain Light Rain
8:53 AM 46.9 °F - 44.1 °F 90% 29.87 in 8.0 mi NNE 13.8 mph - 0.05 in Rain Light Rain
9:18 AM 46.4 °F 41.1 °F 44.6 °F 93% 29.88 in 10.0 mi NNE 11.5 mph - 0.00 in   Overcast
9:36 AM 48.2 °F - 44.6 °F 87% 29.88 in 10.0 mi NE 10.4 mph - 0.00 in Rain Light Rain
9:53 AM 48.0 °F - 45.0 °F 89% 29.88 in 10.0 mi NE 11.5 mph - 0.01 in Rain Light Rain
10:53 AM 48.0 °F - 45.0 °F 89% 29.86 in 5.0 mi NE 10.4 mph - 0.11 in Rain Rain
11:24 AM 48.2 °F - 44.6 °F 87% 29.90 in 8.0 mi North 6.9 mph - 0.01 in Rain Light Rain
11:46 AM 48.2 °F - 46.4 °F 93% 29.87 in 6.0 mi North 10.4 mph - 0.01 in Rain , Thunderstorm Light Rain
11:53 AM 48.9 °F - 46.0 °F 90% 29.89 in 5.0 mi North 6.9 mph - 0.02 in Rain , Thunderstorm Light Rain
12:21 PM 48.2 °F - 46.4 °F 93% 29.87 in 4.0 mi NNE 9.2 mph - 0.01 in Rain Light Rain
12:33 PM 48.2 °F - 46.4 °F 93% 29.86 in 5.0 mi NE 8.1 mph - 0.02 in Rain , Thunderstorm Light Rain
12:40 PM 50.0 °F - 46.4 °F 87% 29.87 in 6.0 mi NE 8.1 mph - 0.02 in Rain , Thunderstorm Light Rain
12:53 PM 50.0 °F - 46.9 °F 89% 29.86 in 5.0 mi NNE 6.9 mph - 0.03 in Rain , Thunderstorm Light Rain
1:01 PM 50.0 °F - 46.4 °F 87% 29.82 in 5.0 mi NNE 16.1 mph 19.6 mph 0.00 in Rain Light Rain
1:09 PM 50.0 °F - 48.2 °F 94% 29.82 in 5.0 mi NNE 11.5 mph - 0.00 in Rain Light Rain
1:50 PM 51.8 °F - 48.2 °F 88% 29.80 in 3.0 mi ENE 12.7 mph - 0.09 in Rain Heavy Rain
1:53 PM 52.0 °F - 48.9 °F 89% 29.79 in 2.5 mi ENE 13.8 mph - 0.09 in Rain Heavy Rain
1:57 PM 51.8 °F - 48.2 °F 88% 29.81 in 3.0 mi ENE 10.4 mph - 0.01 in Rain Rain
2:05 PM 51.8 °F - 48.2 °F 88% 29.82 in 6.0 mi NE 9.2 mph - 0.02 in Rain Light Rain
2:22 PM 51.8 °F - 48.2 °F 88% 29.81 in 10.0 mi ENE 11.5 mph - 0.02 in   Overcast
2:53 PM 52.0 °F - 48.9 °F 89% 29.78 in 10.0 mi NNE 10.4 mph - 0.02 in   Overcast
2:57 PM 53.6 °F - 48.2 °F 82% 29.79 in 10.0 mi NNE 11.5 mph - N/A   Overcast
3:05 PM 51.8 °F - 48.2 °F 88% 29.80 in 10.0 mi NNE 6.9 mph - N/A   Overcast
3:53 PM 52.0 °F - 48.9 °F 89% 29.80 in 10.0 mi North 10.4 mph - 0.00 in Rain Light Rain
4:11 PM 51.8 °F - 50.0 °F 94% 29.79 in 2.0 mi North 9.2 mph - 0.00 in Rain Light Rain
4:17 PM 51.8 °F - 50.0 °F 94% 29.78 in 3.0 mi North 8.1 mph - 0.00 in Rain Light Rain
4:28 PM 53.6 °F - 51.8 °F 94% 29.77 in 4.0 mi North 9.2 mph - 0.00 in Rain Light Rain
4:53 PM 52.0 °F - 48.9 °F 89% 29.77 in 9.0 mi NNW 16.1 mph 20.7 mph 0.00 in   Overcast
5:48 PM 51.8 °F - 48.2 °F 88% 29.80 in 2.0 mi NNW 10.4 mph - 0.01 in Rain Light Rain
5:53 PM 51.1 °F - 48.9 °F 92% 29.79 in 2.0 mi NNW 12.7 mph - 0.01 in Rain Light Rain
6:06 PM 51.8 °F - 48.2 °F 88% 29.79 in 3.0 mi NNW 11.5 mph - 0.00 in Rain Light Rain
6:15 PM 51.8 °F - 48.2 °F 88% 29.79 in 2.5 mi NNW 12.7 mph 20.7 mph 0.00 in Rain Light Rain
6:37 PM 51.8 °F - 48.2 °F 88% 29.78 in 4.0 mi North 15.0 mph 18.4 mph 0.00 in Rain Light Rain
6:53 PM 52.0 °F - 48.9 °F 89% 29.78 in 10.0 mi North 13.8 mph - 0.00 in   Overcast
7:14 PM 51.8 °F - 48.2 °F 88% 29.79 in 10.0 mi North 15.0 mph - N/A   Overcast
7:28 PM 51.8 °F - 48.2 °F 88% 29.80 in 4.0 mi North 10.4 mph - 0.00 in Rain Light Rain
7:53 PM 51.1 °F - 48.0 °F 89% 29.78 in 6.0 mi NNE 12.7 mph 18.4 mph 0.00 in Rain Light Rain
8:53 PM 50.0 °F - 48.0 °F 93% 29.77 in 9.0 mi NE 12.7 mph - 0.00 in   Overcast
9:53 PM 50.0 °F - 46.9 °F 89% 29.81 in 10.0 mi North 5.8 mph - N/A   Overcast
10:53 PM 50.0 °F - 46.9 °F 89% 29.85 in 10.0 mi West 4.6 mph - N/A   Overcast
11:53 PM 50.0 °F - 48.0 °F 93% 29.84 in 10.0 mi WNW 5.8 mph - N/A   Overcast